Year,Month,Day,Hour,Minute,Value (Times are PST for temperature in C)
2017,08,26,00,00,13.00
2017,08,26,00,01,13.00
2017,08,26,00,02,13.00
2017,08,26,00,03,13.00
2017,08,26,00,04,12.90
2017,08,26,00,05,12.90
2017,08,26,00,06,12.90
2017,08,26,00,07,12.90
2017,08,26,00,08,12.90
2017,08,26,00,09,12.90
2017,08,26,00,10,12.90
2017,08,26,00,11,12.90
2017,08,26,00,12,12.90
2017,08,26,00,13,12.90
2017,08,26,00,14,12.90
2017,08,26,00,15,12.80
2017,08,26,00,16,12.80
2017,08,26,00,17,12.80
2017,08,26,00,18,12.80
2017,08,26,00,19,12.80
2017,08,26,00,20,12.80
2017,08,26,00,21,12.80
2017,08,26,00,22,12.70
2017,08,26,00,23,12.70
2017,08,26,00,24,12.70
2017,08,26,00,25,12.70
2017,08,26,00,26,12.70
2017,08,26,00,27,12.70
2017,08,26,00,28,12.70
2017,08,26,00,29,12.70
2017,08,26,00,30,12.60
2017,08,26,00,31,12.60
2017,08,26,00,32,12.60
2017,08,26,00,33,12.60
2017,08,26,00,34,12.50
2017,08,26,00,35,12.50
2017,08,26,00,36,12.50
2017,08,26,00,37,12.40
2017,08,26,00,38,12.40
2017,08,26,00,39,12.40
2017,08,26,00,40,12.40
2017,08,26,00,41,12.40
2017,08,26,00,42,12.40
2017,08,26,00,43,12.40
2017,08,26,00,44,12.40
2017,08,26,00,45,12.40
2017,08,26,00,46,12.40
2017,08,26,00,47,12.40
2017,08,26,00,48,12.40
2017,08,26,00,49,12.40
2017,08,26,00,50,12.40
2017,08,26,00,51,12.40
2017,08,26,00,52,12.40
2017,08,26,00,53,12.40
2017,08,26,00,54,12.40
2017,08,26,00,55,12.40
2017,08,26,00,56,12.40
2017,08,26,00,57,12.40
2017,08,26,00,58,12.40
2017,08,26,00,59,12.40
2017,08,26,01,00,12.40
2017,08,26,01,01,12.40
2017,08,26,01,02,12.40
2017,08,26,01,03,12.30
2017,08,26,01,04,12.30
2017,08,26,01,05,12.30
2017,08,26,01,06,12.30
2017,08,26,01,07,12.30
2017,08,26,01,08,12.30
2017,08,26,01,09,12.30
2017,08,26,01,10,12.30
2017,08,26,01,11,12.30
2017,08,26,01,12,12.30
2017,08,26,01,13,12.20
2017,08,26,01,14,12.20
2017,08,26,01,15,12.20
2017,08,26,01,16,12.20
2017,08,26,01,17,12.20
2017,08,26,01,18,12.20
2017,08,26,01,19,12.20
2017,08,26,01,20,12.20
2017,08,26,01,21,12.10
2017,08,26,01,22,12.10
2017,08,26,01,23,12.10
2017,08,26,01,24,12.10
2017,08,26,01,25,12.10
2017,08,26,01,26,12.10
2017,08,26,01,27,12.10
2017,08,26,01,28,12.00
2017,08,26,01,29,12.00
2017,08,26,01,30,12.00
2017,08,26,01,31,12.00
2017,08,26,01,32,12.00
2017,08,26,01,33,12.00
2017,08,26,01,34,12.00
2017,08,26,01,35,12.00
2017,08,26,01,36,12.10
2017,08,26,01,37,12.10
2017,08,26,01,38,12.10
2017,08,26,01,39,12.10
2017,08,26,01,40,12.10
2017,08,26,01,41,12.10
2017,08,26,01,42,12.00
2017,08,26,01,43,12.00
2017,08,26,01,44,12.00
2017,08,26,01,45,12.00
2017,08,26,01,46,12.00
2017,08,26,01,47,12.00
2017,08,26,01,48,11.90
2017,08,26,01,49,11.90
2017,08,26,01,50,11.90
2017,08,26,01,51,11.90
2017,08,26,01,52,11.90
2017,08,26,01,53,11.90
2017,08,26,01,54,11.90
2017,08,26,01,55,11.80
2017,08,26,01,56,11.80
2017,08,26,01,57,11.80
2017,08,26,01,58,11.80
2017,08,26,01,59,11.80
2017,08,26,02,00,11.80
2017,08,26,02,01,11.80
2017,08,26,02,02,11.80
2017,08,26,02,03,11.70
2017,08,26,02,04,11.70
2017,08,26,02,05,11.70
2017,08,26,02,06,11.70
2017,08,26,02,07,11.70
2017,08,26,02,08,11.80
2017,08,26,02,09,11.80
2017,08,26,02,10,11.70
2017,08,26,02,11,11.70
2017,08,26,02,12,11.70
2017,08,26,02,13,11.70
2017,08,26,02,14,11.70
2017,08,26,02,15,11.70
2017,08,26,02,16,11.70
2017,08,26,02,17,11.70
2017,08,26,02,18,11.70
2017,08,26,02,19,11.70
2017,08,26,02,20,11.80
2017,08,26,02,21,11.70
2017,08,26,02,22,11.70
2017,08,26,02,23,11.70
2017,08,26,02,24,11.70
2017,08,26,02,25,11.70
2017,08,26,02,26,11.70
2017,08,26,02,27,11.70
2017,08,26,02,28,11.70
2017,08,26,02,29,11.70
2017,08,26,02,30,11.60
2017,08,26,02,31,11.60
2017,08,26,02,32,11.60
2017,08,26,02,33,11.60
2017,08,26,02,34,11.60
2017,08,26,02,35,11.60
2017,08,26,02,36,11.60
2017,08,26,02,37,11.60
2017,08,26,02,38,11.60
2017,08,26,02,39,11.60
2017,08,26,02,40,11.60
2017,08,26,02,41,11.60
2017,08,26,02,42,11.60
2017,08,26,02,43,11.50
2017,08,26,02,44,11.50
2017,08,26,02,45,11.50
2017,08,26,02,46,11.50
2017,08,26,02,47,11.50
2017,08,26,02,48,11.40
2017,08,26,02,49,11.40
2017,08,26,02,50,11.40
2017,08,26,02,51,11.30
2017,08,26,02,52,11.30
2017,08,26,02,53,11.30
2017,08,26,02,54,11.30
2017,08,26,02,55,11.30
2017,08,26,02,56,11.20
2017,08,26,02,57,11.20
2017,08,26,02,58,11.20
2017,08,26,02,59,11.20
2017,08,26,03,00,11.20
2017,08,26,03,01,11.20
2017,08,26,03,02,11.20
2017,08,26,03,03,11.10
2017,08,26,03,04,11.10
2017,08,26,03,05,11.10
2017,08,26,03,06,11.10
2017,08,26,03,07,11.10
2017,08,26,03,08,11.10
2017,08,26,03,09,11.10
2017,08,26,03,10,11.10
2017,08,26,03,11,11.00
2017,08,26,03,12,11.00
2017,08,26,03,13,11.00
2017,08,26,03,14,10.90
2017,08,26,03,15,10.90
2017,08,26,03,16,10.90
2017,08,26,03,17,10.90
2017,08,26,03,18,10.80
2017,08,26,03,19,10.80
2017,08,26,03,20,10.80
2017,08,26,03,21,10.80
2017,08,26,03,22,10.70
2017,08,26,03,23,10.70
2017,08,26,03,24,10.70
2017,08,26,03,25,10.70
2017,08,26,03,26,10.70
2017,08,26,03,27,10.70
2017,08,26,03,28,10.70
2017,08,26,03,29,10.70
2017,08,26,03,30,10.70
2017,08,26,03,31,10.80
2017,08,26,03,32,10.80
2017,08,26,03,33,10.80
2017,08,26,03,34,10.80
2017,08,26,03,35,10.80
2017,08,26,03,36,10.80
2017,08,26,03,37,10.90
2017,08,26,03,38,10.80
2017,08,26,03,39,10.80
2017,08,26,03,40,10.80
2017,08,26,03,41,10.80
2017,08,26,03,42,10.80
2017,08,26,03,43,10.80
2017,08,26,03,44,10.90
2017,08,26,03,45,10.90
2017,08,26,03,46,10.90
2017,08,26,03,47,10.90
2017,08,26,03,48,10.90
2017,08,26,03,49,10.90
2017,08,26,03,50,10.90
2017,08,26,03,51,10.90
2017,08,26,03,52,10.90
2017,08,26,03,53,10.90
2017,08,26,03,54,10.90
2017,08,26,03,55,10.90
2017,08,26,03,56,10.90
2017,08,26,03,57,10.90
2017,08,26,03,58,10.90
2017,08,26,03,59,10.90
2017,08,26,04,00,10.90
2017,08,26,04,01,10.90
2017,08,26,04,02,10.90
2017,08,26,04,03,10.80
2017,08,26,04,04,10.80
2017,08,26,04,05,10.80
2017,08,26,04,06,10.80
2017,08,26,04,07,10.80
2017,08,26,04,08,10.80
2017,08,26,04,09,10.80
2017,08,26,04,10,10.80
2017,08,26,04,11,10.80
2017,08,26,04,12,10.80
2017,08,26,04,13,10.80
2017,08,26,04,14,10.80
2017,08,26,04,15,10.80
2017,08,26,04,16,10.80
2017,08,26,04,17,10.80
2017,08,26,04,18,10.80
2017,08,26,04,19,10.80
2017,08,26,04,20,10.80
2017,08,26,04,21,10.80
2017,08,26,04,22,10.80
2017,08,26,04,23,10.80
2017,08,26,04,24,10.70
2017,08,26,04,25,10.70
2017,08,26,04,26,10.70
2017,08,26,04,27,10.70
2017,08,26,04,28,10.70
2017,08,26,04,29,10.70
2017,08,26,04,30,10.70
2017,08,26,04,31,10.70
2017,08,26,04,32,10.70
2017,08,26,04,33,10.70
2017,08,26,04,34,10.60
2017,08,26,04,35,10.60
2017,08,26,04,36,10.60
2017,08,26,04,37,10.60
2017,08,26,04,38,10.60
2017,08,26,04,39,10.50
2017,08,26,04,40,10.50
2017,08,26,04,41,10.40
2017,08,26,04,42,10.40
2017,08,26,04,43,10.40
2017,08,26,04,44,10.30
2017,08,26,04,45,10.30
2017,08,26,04,46,10.30
2017,08,26,04,47,10.30
2017,08,26,04,48,10.30
2017,08,26,04,49,10.30
2017,08,26,04,50,10.20
2017,08,26,04,51,10.20
2017,08,26,04,52,10.20
2017,08,26,04,53,10.20
2017,08,26,04,54,10.20
2017,08,26,04,55,10.20
2017,08,26,04,56,10.20
2017,08,26,04,57,10.20
2017,08,26,04,58,10.20
2017,08,26,04,59,10.20
2017,08,26,05,00,10.20
2017,08,26,05,01,10.20
2017,08,26,05,02,10.20
2017,08,26,05,03,10.20
2017,08,26,05,04,10.10
2017,08,26,05,05,10.10
2017,08,26,05,06,10.10
2017,08,26,05,07,10.20
2017,08,26,05,08,10.20
2017,08,26,05,09,10.20
2017,08,26,05,10,10.20
2017,08,26,05,11,10.20
2017,08,26,05,12,10.20
2017,08,26,05,13,10.20
2017,08,26,05,14,10.20
2017,08,26,05,15,10.20
2017,08,26,05,16,10.20
2017,08,26,05,17,10.10
2017,08,26,05,18,10.10
2017,08,26,05,19,10.10
2017,08,26,05,20,10.10
2017,08,26,05,21,10.10
2017,08,26,05,22,10.10
2017,08,26,05,23,10.10
2017,08,26,05,24,10.10
2017,08,26,05,25,10.10
2017,08,26,05,26,10.10
2017,08,26,05,27,10.10
2017,08,26,05,28,10.00
2017,08,26,05,29,10.00
2017,08,26,05,30,10.10
2017,08,26,05,31,10.10
2017,08,26,05,32,10.10
2017,08,26,05,33,10.10
2017,08,26,05,34,10.10
2017,08,26,05,35,10.20
2017,08,26,05,36,10.20
2017,08,26,05,37,10.20
2017,08,26,05,38,10.20
2017,08,26,05,39,10.20
2017,08,26,05,40,10.30
2017,08,26,05,41,10.30
2017,08,26,05,42,10.30
2017,08,26,05,43,10.30
2017,08,26,05,44,10.30
2017,08,26,05,45,10.30
2017,08,26,05,46,10.30
2017,08,26,05,47,10.40
2017,08,26,05,48,10.40
2017,08,26,05,49,10.40
2017,08,26,05,50,10.40
2017,08,26,05,51,10.40
2017,08,26,05,52,10.40
2017,08,26,05,53,10.40
2017,08,26,05,54,10.40
2017,08,26,05,55,10.40
2017,08,26,05,56,10.40
2017,08,26,05,57,10.40
2017,08,26,05,58,10.40
2017,08,26,05,59,10.30
2017,08,26,06,00,10.30
2017,08,26,06,01,10.30
2017,08,26,06,02,10.30
2017,08,26,06,03,10.30
2017,08,26,06,04,10.30
2017,08,26,06,05,10.30
2017,08,26,06,06,10.30
2017,08,26,06,07,10.30
2017,08,26,06,08,10.30
2017,08,26,06,09,10.30
2017,08,26,06,10,10.30
2017,08,26,06,11,10.20
2017,08,26,06,12,10.20
2017,08,26,06,13,10.20
2017,08,26,06,14,10.20
2017,08,26,06,15,10.20
2017,08,26,06,16,10.20
2017,08,26,06,17,10.10
2017,08,26,06,18,10.10
2017,08,26,06,19,10.10
2017,08,26,06,20,10.10
2017,08,26,06,21,10.10
2017,08,26,06,22,10.00
2017,08,26,06,23,10.00
2017,08,26,06,24,10.00
2017,08,26,06,25,10.00
2017,08,26,06,26,10.00
2017,08,26,06,27,10.00
2017,08,26,06,28,10.00
2017,08,26,06,29,10.00
2017,08,26,06,30,9.90
2017,08,26,06,31,10.00
2017,08,26,06,32,10.00
2017,08,26,06,33,10.00
2017,08,26,06,34,10.00
2017,08,26,06,35,10.00
2017,08,26,06,36,10.10
2017,08,26,06,37,10.10
2017,08,26,06,38,10.10
2017,08,26,06,39,10.10
2017,08,26,06,40,10.10
2017,08,26,06,41,10.10
2017,08,26,06,42,10.10
2017,08,26,06,43,10.10
2017,08,26,06,44,10.10
2017,08,26,06,45,10.10
2017,08,26,06,46,10.10
2017,08,26,06,47,10.10
2017,08,26,06,48,10.10
2017,08,26,06,49,10.10
2017,08,26,06,50,10.10
2017,08,26,06,51,10.10
2017,08,26,06,52,10.10
2017,08,26,06,53,10.10
2017,08,26,06,54,10.10
2017,08,26,06,55,10.10
2017,08,26,06,56,10.10
2017,08,26,06,57,10.10
2017,08,26,06,58,10.10
2017,08,26,06,59,10.10
2017,08,26,07,00,10.10
2017,08,26,07,01,10.10
2017,08,26,07,02,10.10
2017,08,26,07,03,10.10
2017,08,26,07,04,10.10
2017,08,26,07,05,10.10
2017,08,26,07,06,10.10
2017,08,26,07,07,10.20
2017,08,26,07,08,10.20
2017,08,26,07,09,10.20
2017,08,26,07,10,10.20
2017,08,26,07,11,10.20
2017,08,26,07,12,10.20
2017,08,26,07,13,10.30
2017,08,26,07,14,10.30
2017,08,26,07,15,10.30
2017,08,26,07,16,10.30
2017,08,26,07,17,10.30
2017,08,26,07,18,10.30
2017,08,26,07,19,10.30
2017,08,26,07,20,10.30
2017,08,26,07,21,10.30
2017,08,26,07,22,10.40
2017,08,26,07,23,10.40
2017,08,26,07,24,10.50
2017,08,26,07,25,10.50
2017,08,26,07,26,10.60
2017,08,26,07,27,10.70
2017,08,26,07,28,10.80
2017,08,26,07,29,10.80
2017,08,26,07,30,10.90
2017,08,26,07,31,11.00
2017,08,26,07,32,11.10
2017,08,26,07,33,11.20
2017,08,26,07,34,11.30
2017,08,26,07,35,11.40
2017,08,26,07,36,11.50
2017,08,26,07,37,11.60
2017,08,26,07,38,11.70
2017,08,26,07,39,11.80
2017,08,26,07,40,11.90
2017,08,26,07,41,12.10
2017,08,26,07,42,12.30
2017,08,26,07,43,12.50
2017,08,26,07,44,12.60
2017,08,26,07,45,12.80
2017,08,26,07,46,12.90
2017,08,26,07,47,13.00
2017,08,26,07,48,13.20
2017,08,26,07,49,13.30
2017,08,26,07,50,13.40
2017,08,26,07,51,13.50
2017,08,26,07,52,13.60
2017,08,26,07,53,13.60
2017,08,26,07,54,13.70
2017,08,26,07,55,13.70
2017,08,26,07,56,13.80
2017,08,26,07,57,13.90
2017,08,26,07,58,14.00
2017,08,26,07,59,14.00
2017,08,26,08,00,14.10
2017,08,26,08,01,14.20
2017,08,26,08,02,14.40
2017,08,26,08,03,14.50
2017,08,26,08,04,14.60
2017,08,26,08,05,14.80
2017,08,26,08,06,14.90
2017,08,26,08,07,15.00
2017,08,26,08,08,15.10
2017,08,26,08,09,15.20
2017,08,26,08,10,15.30
2017,08,26,08,11,15.40
2017,08,26,08,12,15.50
2017,08,26,08,13,15.60
2017,08,26,08,14,15.70
2017,08,26,08,15,15.80
2017,08,26,08,16,15.90
2017,08,26,08,17,16.00
2017,08,26,08,18,16.20
2017,08,26,08,19,16.30
2017,08,26,08,20,16.40
2017,08,26,08,21,16.50
2017,08,26,08,22,16.70
2017,08,26,08,23,16.80
2017,08,26,08,24,16.80
2017,08,26,08,25,16.90
2017,08,26,08,26,17.00
2017,08,26,08,27,17.10
2017,08,26,08,28,17.30
2017,08,26,08,29,17.40
2017,08,26,08,30,17.40
2017,08,26,08,31,17.50
2017,08,26,08,32,17.50
2017,08,26,08,33,17.60
2017,08,26,08,34,17.70
2017,08,26,08,35,17.70
2017,08,26,08,36,17.80
2017,08,26,08,37,17.80
2017,08,26,08,38,17.90
2017,08,26,08,39,18.00
2017,08,26,08,40,18.00
2017,08,26,08,41,18.00
2017,08,26,08,42,18.00
2017,08,26,08,43,18.00
2017,08,26,08,44,18.00
2017,08,26,08,45,18.10
2017,08,26,08,46,18.10
2017,08,26,08,47,18.20
2017,08,26,08,48,18.20
2017,08,26,08,49,18.30
2017,08,26,08,50,18.40
2017,08,26,08,51,18.50
2017,08,26,08,52,18.60
2017,08,26,08,53,18.70
2017,08,26,08,54,18.70
2017,08,26,08,55,18.70
2017,08,26,08,56,18.70
2017,08,26,08,57,18.70
2017,08,26,08,58,18.60
2017,08,26,08,59,18.60
2017,08,26,09,00,18.50
2017,08,26,09,01,18.50
2017,08,26,09,02,18.50
2017,08,26,09,03,18.50
2017,08,26,09,04,18.60
2017,08,26,09,05,18.70
2017,08,26,09,06,18.80
2017,08,26,09,07,18.90
2017,08,26,09,08,18.90
2017,08,26,09,09,19.00
2017,08,26,09,10,19.10
2017,08,26,09,11,19.10
2017,08,26,09,12,19.20
2017,08,26,09,13,19.20
2017,08,26,09,14,19.20
2017,08,26,09,15,19.20
2017,08,26,09,16,19.20
2017,08,26,09,17,19.20
2017,08,26,09,18,19.20
2017,08,26,09,19,19.30
2017,08,26,09,20,19.30
2017,08,26,09,21,19.30
2017,08,26,09,22,19.40
2017,08,26,09,23,19.50
2017,08,26,09,24,19.60
2017,08,26,09,25,19.70
2017,08,26,09,26,19.70
2017,08,26,09,27,19.70
2017,08,26,09,28,19.70
2017,08,26,09,29,19.70
2017,08,26,09,30,19.70
2017,08,26,09,31,19.70
2017,08,26,09,32,19.70
2017,08,26,09,33,19.60
2017,08,26,09,34,19.70
2017,08,26,09,35,19.70
2017,08,26,09,36,19.80
2017,08,26,09,37,19.80
2017,08,26,09,38,19.80
2017,08,26,09,39,19.80
2017,08,26,09,40,19.80
2017,08,26,09,41,19.90
2017,08,26,09,42,19.90
2017,08,26,09,43,19.90
2017,08,26,09,44,20.00
2017,08,26,09,45,20.10
2017,08,26,09,46,20.20
2017,08,26,09,47,20.20
2017,08,26,09,48,20.30
2017,08,26,09,49,20.30
2017,08,26,09,50,20.30
2017,08,26,09,51,20.30
2017,08,26,09,52,20.30
2017,08,26,09,53,20.30
2017,08,26,09,54,20.40
2017,08,26,09,55,20.40
2017,08,26,09,56,20.40
2017,08,26,09,57,20.40
2017,08,26,09,58,20.40
2017,08,26,09,59,20.50
2017,08,26,10,00,20.50
2017,08,26,10,01,20.60
2017,08,26,10,02,20.70
2017,08,26,10,03,20.80
2017,08,26,10,04,20.80
2017,08,26,10,05,20.90
2017,08,26,10,06,20.90
2017,08,26,10,07,20.90
2017,08,26,10,08,21.00
2017,08,26,10,09,21.00
2017,08,26,10,10,21.10
2017,08,26,10,11,21.10
2017,08,26,10,12,21.20
2017,08,26,10,13,21.20
2017,08,26,10,14,21.10
2017,08,26,10,15,21.10
2017,08,26,10,16,21.10
2017,08,26,10,17,21.10
2017,08,26,10,18,21.10
2017,08,26,10,19,21.10
2017,08,26,10,20,21.20
2017,08,26,10,21,21.20
2017,08,26,10,22,21.20
2017,08,26,10,23,21.20
2017,08,26,10,24,21.30
2017,08,26,10,25,21.30
2017,08,26,10,26,21.30
2017,08,26,10,27,21.30
2017,08,26,10,28,21.30
2017,08,26,10,29,21.40
2017,08,26,10,30,21.40
2017,08,26,10,31,21.40
2017,08,26,10,32,21.40
2017,08,26,10,33,21.40
2017,08,26,10,34,21.50
2017,08,26,10,35,21.60
2017,08,26,10,36,21.70
2017,08,26,10,37,21.80
2017,08,26,10,38,21.80
2017,08,26,10,39,21.80
2017,08,26,10,40,21.80
2017,08,26,10,41,21.90
2017,08,26,10,42,21.90
2017,08,26,10,43,22.00
2017,08,26,10,44,21.90
2017,08,26,10,45,21.90
2017,08,26,10,46,21.80
2017,08,26,10,47,21.80
2017,08,26,10,48,21.90
2017,08,26,10,49,21.90
2017,08,26,10,50,22.00
2017,08,26,10,51,22.00
2017,08,26,10,52,21.90
2017,08,26,10,53,21.90
2017,08,26,10,54,22.00
2017,08,26,10,55,22.00
2017,08,26,10,56,22.00
2017,08,26,10,57,22.00
2017,08,26,10,58,22.00
2017,08,26,10,59,22.10
2017,08,26,11,00,22.20
2017,08,26,11,01,22.30
2017,08,26,11,02,22.30
2017,08,26,11,03,22.20
2017,08,26,11,04,22.20
2017,08,26,11,05,22.20
2017,08,26,11,06,22.10
2017,08,26,11,07,22.10
2017,08,26,11,08,22.20
2017,08,26,11,09,22.30
2017,08,26,11,10,22.40
2017,08,26,11,11,22.50
2017,08,26,11,12,22.60
2017,08,26,11,13,22.60
2017,08,26,11,14,22.60
2017,08,26,11,15,22.60
2017,08,26,11,16,22.60
2017,08,26,11,17,22.60
2017,08,26,11,18,22.70
2017,08,26,11,19,22.70
2017,08,26,11,20,22.70
2017,08,26,11,21,22.70
2017,08,26,11,22,22.70
2017,08,26,11,23,22.70
2017,08,26,11,24,22.70
2017,08,26,11,25,22.70
2017,08,26,11,26,22.70
2017,08,26,11,27,22.70
2017,08,26,11,28,22.70
2017,08,26,11,29,22.80
2017,08,26,11,30,22.80
2017,08,26,11,31,22.80
2017,08,26,11,32,22.80
2017,08,26,11,33,22.80
2017,08,26,11,34,22.80
2017,08,26,11,35,22.80
2017,08,26,11,36,22.80
2017,08,26,11,37,22.90
2017,08,26,11,38,22.80
2017,08,26,11,39,22.80
2017,08,26,11,40,22.80
2017,08,26,11,41,22.80
2017,08,26,11,42,22.80
2017,08,26,11,43,22.90
2017,08,26,11,44,22.90
2017,08,26,11,45,23.00
2017,08,26,11,46,23.10
2017,08,26,11,47,23.10
2017,08,26,11,48,23.10
2017,08,26,11,49,23.10
2017,08,26,11,50,23.00
2017,08,26,11,51,23.10
2017,08,26,11,52,23.20
2017,08,26,11,53,23.20
2017,08,26,11,54,23.30
2017,08,26,11,55,23.30
2017,08,26,11,56,23.30
2017,08,26,11,57,23.30
2017,08,26,11,58,23.30
2017,08,26,11,59,23.20
2017,08,26,12,00,23.20
2017,08,26,12,01,23.10
2017,08,26,12,02,23.10
2017,08,26,12,03,23.10
2017,08,26,12,04,23.10
2017,08,26,12,05,23.20
2017,08,26,12,06,23.20
2017,08,26,12,07,23.30
2017,08,26,12,08,23.30
2017,08,26,12,09,23.30
2017,08,26,12,10,23.30
2017,08,26,12,11,23.30
2017,08,26,12,12,23.20
2017,08,26,12,13,23.20
2017,08,26,12,14,23.20
2017,08,26,12,15,23.20
2017,08,26,12,16,23.20
2017,08,26,12,17,23.30
2017,08,26,12,18,23.30
2017,08,26,12,19,23.20
2017,08,26,12,20,23.10
2017,08,26,12,21,23.10
2017,08,26,12,22,23.20
2017,08,26,12,23,23.30
2017,08,26,12,24,23.30
2017,08,26,12,25,23.30
2017,08,26,12,26,23.40
2017,08,26,12,27,23.40
2017,08,26,12,28,23.40
2017,08,26,12,29,23.30
2017,08,26,12,30,23.30
2017,08,26,12,31,23.20
2017,08,26,12,32,23.20
2017,08,26,12,33,23.20
2017,08,26,12,34,23.20
2017,08,26,12,35,23.20
2017,08,26,12,36,23.10
2017,08,26,12,37,23.20
2017,08,26,12,38,23.30
2017,08,26,12,39,23.40
2017,08,26,12,40,23.40
2017,08,26,12,41,23.40
2017,08,26,12,42,23.50
2017,08,26,12,43,23.60
2017,08,26,12,44,23.60
2017,08,26,12,45,23.60
2017,08,26,12,46,23.60
2017,08,26,12,47,23.60
2017,08,26,12,48,23.60
2017,08,26,12,49,23.60
2017,08,26,12,50,23.60
2017,08,26,12,51,23.60
2017,08,26,12,52,23.60
2017,08,26,12,53,23.60
2017,08,26,12,54,23.60
2017,08,26,12,55,23.60
2017,08,26,12,56,23.70
2017,08,26,12,57,23.70
2017,08,26,12,58,23.70
2017,08,26,12,59,23.70
2017,08,26,13,00,23.70
2017,08,26,13,01,23.70
2017,08,26,13,02,23.80
2017,08,26,13,03,23.80
2017,08,26,13,04,23.80
2017,08,26,13,05,23.70
2017,08,26,13,06,23.70
2017,08,26,13,07,23.80
2017,08,26,13,08,23.80
2017,08,26,13,09,23.90
2017,08,26,13,10,24.00
2017,08,26,13,11,24.00
2017,08,26,13,12,23.90
2017,08,26,13,13,23.90
2017,08,26,13,14,23.80
2017,08,26,13,15,23.80
2017,08,26,13,16,23.70
2017,08,26,13,17,23.70
2017,08,26,13,18,23.70
2017,08,26,13,19,23.60
2017,08,26,13,20,23.60
2017,08,26,13,21,23.60
2017,08,26,13,22,23.70
2017,08,26,13,23,23.70
2017,08,26,13,24,23.80
2017,08,26,13,25,23.80
2017,08,26,13,26,23.90
2017,08,26,13,27,23.90
2017,08,26,13,28,23.90
2017,08,26,13,29,23.90
2017,08,26,13,30,23.90
2017,08,26,13,31,23.90
2017,08,26,13,32,24.00
2017,08,26,13,33,24.00
2017,08,26,13,34,24.00
2017,08,26,13,35,24.00
2017,08,26,13,36,24.00
2017,08,26,13,37,24.00
2017,08,26,13,38,24.10
2017,08,26,13,39,24.10
2017,08,26,13,40,24.10
2017,08,26,13,41,24.10
2017,08,26,13,42,24.10
2017,08,26,13,43,24.20
2017,08,26,13,44,24.30
2017,08,26,13,45,24.30
2017,08,26,13,46,24.40
2017,08,26,13,47,24.40
2017,08,26,13,48,24.50
2017,08,26,13,49,24.50
2017,08,26,13,50,24.50
2017,08,26,13,51,24.60
2017,08,26,13,52,24.70
2017,08,26,13,53,24.80
2017,08,26,13,54,24.80
2017,08,26,13,55,24.80
2017,08,26,13,56,24.80
2017,08,26,13,57,24.80
2017,08,26,13,58,24.80
2017,08,26,13,59,24.80
2017,08,26,14,00,24.80
2017,08,26,14,01,24.70
2017,08,26,14,02,24.70
2017,08,26,14,03,24.80
2017,08,26,14,04,24.80
2017,08,26,14,05,24.90
2017,08,26,14,06,24.80
2017,08,26,14,07,24.80
2017,08,26,14,08,24.80
2017,08,26,14,09,24.90
2017,08,26,14,10,24.80
2017,08,26,14,11,24.80
2017,08,26,14,12,24.90
2017,08,26,14,13,25.00
2017,08,26,14,14,25.10
2017,08,26,14,15,25.10
2017,08,26,14,16,25.20
2017,08,26,14,17,25.10
2017,08,26,14,18,24.90
2017,08,26,14,19,24.90
2017,08,26,14,20,24.80
2017,08,26,14,21,24.80
2017,08,26,14,22,24.80
2017,08,26,14,23,24.80
2017,08,26,14,24,24.70
2017,08,26,14,25,24.70
2017,08,26,14,26,24.70
2017,08,26,14,27,24.80
2017,08,26,14,28,24.90
2017,08,26,14,29,25.00
2017,08,26,14,30,25.00
2017,08,26,14,31,25.10
2017,08,26,14,32,25.20
2017,08,26,14,33,25.20
2017,08,26,14,34,25.20
2017,08,26,14,35,25.20
2017,08,26,14,36,25.10
2017,08,26,14,37,25.10
2017,08,26,14,38,25.10
2017,08,26,14,39,25.10
2017,08,26,14,40,25.00
2017,08,26,14,41,25.00
2017,08,26,14,42,25.00
2017,08,26,14,43,25.10
2017,08,26,14,44,25.10
2017,08,26,14,45,25.10
2017,08,26,14,46,25.20
2017,08,26,14,47,25.30
2017,08,26,14,48,25.30
2017,08,26,14,49,25.40
2017,08,26,14,50,25.60
2017,08,26,14,51,25.70
2017,08,26,14,52,25.70
2017,08,26,14,53,25.60
2017,08,26,14,54,25.60
2017,08,26,14,55,25.70
2017,08,26,14,56,25.70
2017,08,26,14,57,25.80
2017,08,26,14,58,25.80
2017,08,26,14,59,25.70
2017,08,26,15,00,25.60
2017,08,26,15,01,25.60
2017,08,26,15,02,25.60
2017,08,26,15,03,25.70
2017,08,26,15,04,25.80
2017,08,26,15,05,25.80
2017,08,26,15,06,25.80
2017,08,26,15,07,25.80
2017,08,26,15,08,25.80
2017,08,26,15,09,25.70
2017,08,26,15,10,25.60
2017,08,26,15,11,25.60
2017,08,26,15,12,25.60
2017,08,26,15,13,25.70
2017,08,26,15,14,25.80
2017,08,26,15,15,25.80
2017,08,26,15,16,25.80
2017,08,26,15,17,25.80
2017,08,26,15,18,25.80
2017,08,26,15,19,25.80
2017,08,26,15,20,25.80
2017,08,26,15,21,25.80
2017,08,26,15,22,25.80
2017,08,26,15,23,25.80
2017,08,26,15,24,25.70
2017,08,26,15,25,25.70
2017,08,26,15,26,25.70
2017,08,26,15,27,25.70
2017,08,26,15,28,25.80
2017,08,26,15,29,25.90
2017,08,26,15,30,25.90
2017,08,26,15,31,25.90
2017,08,26,15,32,25.90
2017,08,26,15,33,25.90
2017,08,26,15,34,25.90
2017,08,26,15,35,25.90
2017,08,26,15,36,26.00
2017,08,26,15,37,25.90
2017,08,26,15,38,25.90
2017,08,26,15,39,25.80
2017,08,26,15,40,25.80
2017,08,26,15,41,25.70
2017,08,26,15,42,25.70
2017,08,26,15,43,25.70
2017,08,26,15,44,25.70
2017,08,26,15,45,25.60
2017,08,26,15,46,25.70
2017,08,26,15,47,25.70
2017,08,26,15,48,25.60
2017,08,26,15,49,25.60
2017,08,26,15,50,25.60
2017,08,26,15,51,25.60
2017,08,26,15,52,25.70
2017,08,26,15,53,25.70
2017,08,26,15,54,25.70
2017,08,26,15,55,25.70
2017,08,26,15,56,25.80
2017,08,26,15,57,25.80
2017,08,26,15,58,25.80
2017,08,26,15,59,25.80
2017,08,26,16,00,25.80
2017,08,26,16,01,25.80
2017,08,26,16,02,25.80
2017,08,26,16,03,25.80
2017,08,26,16,04,25.80
2017,08,26,16,05,25.80
2017,08,26,16,06,25.80
2017,08,26,16,07,25.90
2017,08,26,16,08,25.90
2017,08,26,16,09,26.00
2017,08,26,16,10,26.10
2017,08,26,16,11,26.10
2017,08,26,16,12,26.00
2017,08,26,16,13,26.00
2017,08,26,16,14,25.90
2017,08,26,16,15,25.90
2017,08,26,16,16,25.90
2017,08,26,16,17,25.90
2017,08,26,16,18,25.80
2017,08,26,16,19,25.80
2017,08,26,16,20,25.90
2017,08,26,16,21,25.90
2017,08,26,16,22,26.00
2017,08,26,16,23,26.10
2017,08,26,16,24,26.10
2017,08,26,16,25,26.10
2017,08,26,16,26,26.00
2017,08,26,16,27,25.90
2017,08,26,16,28,25.90
2017,08,26,16,29,25.90
2017,08,26,16,30,26.00
2017,08,26,16,31,26.00
2017,08,26,16,32,26.00
2017,08,26,16,33,26.00
2017,08,26,16,34,26.00
2017,08,26,16,35,26.00
2017,08,26,16,36,26.00
2017,08,26,16,37,25.90
2017,08,26,16,38,25.90
2017,08,26,16,39,25.90
2017,08,26,16,40,25.90
2017,08,26,16,41,25.90
2017,08,26,16,42,25.90
2017,08,26,16,43,25.80
2017,08,26,16,44,25.70
2017,08,26,16,45,25.80
2017,08,26,16,46,25.80
2017,08,26,16,47,25.90
2017,08,26,16,48,25.90
2017,08,26,16,49,26.00
2017,08,26,16,50,26.10
2017,08,26,16,51,26.00
2017,08,26,16,52,25.90
2017,08,26,16,53,25.90
2017,08,26,16,54,26.00
2017,08,26,16,55,26.10
2017,08,26,16,56,26.20
2017,08,26,16,57,26.20
2017,08,26,16,58,26.20
2017,08,26,16,59,26.20
2017,08,26,17,00,26.20
2017,08,26,17,01,26.20
2017,08,26,17,02,26.20
2017,08,26,17,03,26.20
2017,08,26,17,04,26.10
2017,08,26,17,05,26.10
2017,08,26,17,06,26.10
2017,08,26,17,07,26.10
2017,08,26,17,08,26.10
2017,08,26,17,09,26.10
2017,08,26,17,10,26.20
2017,08,26,17,11,26.20
2017,08,26,17,12,26.20
2017,08,26,17,13,26.20
2017,08,26,17,14,26.20
2017,08,26,17,15,26.20
2017,08,26,17,16,26.20
2017,08,26,17,17,26.20
2017,08,26,17,18,26.20
2017,08,26,17,19,26.30